Regional Weather Roundup
Issued by NWS

Home | Current Version | Previous Version | Graphics & Text | Print | Product List | Glossary On
Versions: 1 2 3 4 5 6 7 8 9 10 11 12 13 14 15 16 17 18 19 20 21 22 23 24 25 26 27 28 29 30 31 32 33 34 35 36 37 38 39 40 41 42 43 44 45 46 47 48 49 50
000
ASUS43 KOAX 171302
RWRNE

WEATHER ROUNDUP FOR NEBRASKA
NATIONAL WEATHER SERVICE OMAHA NE
700 AM CST SAT FEB 17 2018

NOTES: SATELLITE DATA IS BEING USED TO AUGMENT CLOUD COVER ABOVE
       12000 FEET.
       "FAIR" INDICATES FEW OR NO CLOUDS BELOW 12,000 FEET WITH NO
       SIGNIFICANT WEATHER AND/OR OBSTRUCTIONS TO VISIBILITY.


NEZ001>004-019>022-054>056-171400-
NEBRASKA PANHANDLE

CITY           SKY/WX    TMP DP  RH WIND       PRES   REMARKS
SCOTTSBLUFF    CLEAR     30  17  58 W9        29.96R WCI  22
ALLIANCE       CLEAR     21  16  81 W10       29.93R WCI  10
CHADRON        CLEAR     24  16  71 W17       29.93R WCI  11
GORDON         FAIR      19  15  86 W10       29.89S WCI   7
KIMBALL        CLEAR     32  14  47 NW23G29   29.96R WCI  19
SIDNEY         CLEAR     28  16  60 NW14      29.95R WCI  17
$$

NEZ057>060-069>072-079>082-171400-
SOUTHWEST NEBRASKA

CITY           SKY/WX    TMP DP  RH WIND       PRES   REMARKS
NORTH PLATTE   CLEAR     21  17  84 NW5       29.94R WCI  15
IMPERIAL       CLEAR     31  20  63 NW12      29.97R WCI  22
LEXINGTON      PTCLDY    21  17  84 NW7       29.93R WCI  12
MCCOOK         CLEAR     31  22  69 NW14      29.96R WCI  21
OGALLALA       CLEAR     29  20  68 NW9       29.94S WCI  21
$$

NEZ005>010-023>029-035>040-094-171400-
NORTH CENTRAL NEBRASKA

CITY           SKY/WX    TMP DP  RH WIND       PRES   REMARKS
VALENTINE      PTCLDY    24  19  81 W9        29.90R WCI  14
AINSWORTH      CLEAR     26  23  88 W7        29.90R WCI  18
BROKEN BOW     MOCLDY    29  22  75 NW10      29.90R WCI  20
O`NEILL        MOCLDY    28  24  82 W8        29.89R WCI  20
ORD            MOCLDY    28  23  81 NW9       29.89R WCI  19
THEDFORD         N/A     28  23  83 W8        29.92R WCI  19
$$

NEZ041-046>049-061>064-073>077-083>087-171400-
SOUTH CENTRAL NEBRASKA

CITY           SKY/WX    TMP DP  RH WIND       PRES   REMARKS
GRAND ISLAND   PTCLDY    28  19  69 W18       29.89R WCI  15
AURORA         PTCLDY    27  18  70 W15       29.88S WCI  15
HASTINGS       CLEAR     24  17  74 W12       29.91R WCI  13
HEBRON         CLEAR     26  17  70 SW8       29.93R WCI  17
HOLDREGE       CLEAR     24  19  81 W9        29.93R WCI  14
KEARNEY        PTCLDY    27  19  72 W10       29.92R WCI  17
YORK           MOCLDY    25  19  80 W12       29.89R WCI  14
$$

NEZ011>018-030>034-042>045-171400-
NORTHEAST NEBRASKA

CITY           SKY/WX    TMP DP  RH WIND       PRES   REMARKS
NORFOLK        CLOUDY    27  20  75 W12       29.87R WCI  17
ALBION         CLOUDY    28  21  74 NW8       29.89R WCI  20
BLAIR          MOCLDY    29  19  65 S10       29.88R WCI  20
COLUMBUS       CLOUDY    27  19  72 W10       29.89R WCI  17
FREMONT        CLOUDY    28  18  66 SW6       29.89R WCI  22
TEKAMAH        CLOUDY    27  21  78 SW5       29.90R WCI  22
WAYNE          FLURRIES  26  25  96 SW6       29.86F WCI  19
$$

NEZ050>053-065>068-078-088>093-171400-
SOUTHEAST NEBRASKA

CITY           SKY/WX    TMP DP  RH WIND       PRES   REMARKS
LINCOLN        PTCLDY    28  17  63 SW10      29.92R WCI  19
OMAHA EPPLEY   CLOUDY    29  16  58 S10       29.91R WCI  20
BEATRICE       CLEAR     27  19  74 W8        29.93R WCI  18
FALLS CITY     CLOUDY    32  15  49 S9        29.92S WCI  24
NEBRASKA CITY  PTCLDY    26  17  70 S8        29.91S WCI  17
PLATTSMOUTH    CLEAR     27  18  70 S5        29.91S WCI  21
$$

NEZ044-045-051>053-067-171400-
OMAHA AREA

CITY           SKY/WX    TMP DP  RH WIND       PRES   REMARKS
OMAHA EPPLEY   CLOUDY    29  16  58 S10       29.91R WCI  20
BLAIR          MOCLDY    29  19  65 S10       29.88R WCI  20
FREMONT        CLOUDY    28  18  66 SW6       29.89R WCI  22
MILLARD        PTCLDY    29  19  65 SE6       29.91R WCI  23
OFFUTT AFB     PTCLDY    27  17  68 SE5       29.91R WCI  21
PLATTSMOUTH    CLEAR     27  18  70 S5        29.91S WCI  21
WAHOO          CLOUDY    28  18  65 S8        29.89S WCI  20
$$




USA.gov is the U.S. government's official web portal to all federal, state and local government web resources and services.